TimeCET,TemperatureF,Dew PointF,Humidity,Sea Level PressureIn,VisibilityMPH,Wind Direction,Wind SpeedMPH,Gust SpeedMPH,PrecipitationIn,Events,Conditions,WindDirDegrees,DateUTC
6:00 AM,33.8,33.8,100,29.39,6.2,Calm,Calm,-,N/A,,Scattered Clouds,0,2013-12-25 05:00:00
7:00 AM,35,34,95,,6,South,9.2,,,,Partly Cloudy,170,2013-12-25 06:00:00
7:00 AM,33.8,33.8,100,29.39,6.2,South,3.5,-,N/A,,Scattered Clouds,180,2013-12-25 06:00:00
8:00 AM,33.8,33.8,100,29.36,6.2,SW,5.8,-,N/A,,Scattered Clouds,220,2013-12-25 07:00:00
9:00 AM,33.8,33.8,100,29.36,6.2,SW,13.8,-,N/A,,Mostly Cloudy,220,2013-12-25 08:00:00
10:00 AM,35,33,92,,9,SW,16.1,,,Rain,Light Rain Showers,220,2013-12-25 09:00:00
10:00 AM,35.6,35.6,100,29.33,6.2,SSW,13.8,-,N/A,Rain,Light Rain,210,2013-12-25 09:00:00
11:00 AM,35.6,35.6,100,29.36,6.2,SW,17.3,-,N/A,,Mostly Cloudy,220,2013-12-25 10:00:00
12:00 PM,37.4,33.8,87,29.39,6.2,SW,13.8,-,N/A,,Partly Cloudy,230,2013-12-25 11:00:00
12:08 PM,35.6,32.0,87,29.39,1.2,West,15.0,-,N/A,Snow,Light Snow Showers,260,2013-12-25 11:08:00
12:48 PM,35.6,33.8,93,29.36,6.2,WSW,21.9,33.4,N/A,,Partly Cloudy,250,2013-12-25 11:48:00
1:00 PM,36,33,82,,19,WSW,18.4,,,Snow,Light Snow Showers,240,2013-12-25 12:00:00
1:00 PM,37.4,35.6,93,29.36,6.2,WSW,20.7,-,N/A,,Partly Cloudy,250,2013-12-25 12:00:00
2:00 PM,39.2,32.0,75,29.36,6.2,West,18.4,31.1,N/A,,Mostly Cloudy,270,2013-12-25 13:00:00
3:00 PM,35.6,32.0,87,29.39,6.2,WSW,19.6,-,N/A,,Mostly Cloudy,250,2013-12-25 14:00:00
4:00 PM,36,29,67,,12,West,16.1,,,,Mostly Cloudy,270,2013-12-25 15:00:00
4:00 PM,37.4,28.4,70,29.42,6.2,West,24.2,36.8,N/A,,Partly Cloudy,260,2013-12-25 15:00:00
5:00 PM,37.4,30.2,75,29.42,6.2,West,10.4,-,N/A,,Mostly Cloudy,280,2013-12-25 16:00:00
6:00 PM,33.8,33.8,100,29.47,6.2,WNW,6.9,-,N/A,,Mostly Cloudy,300,2013-12-25 17:00:00
7:00 PM,33,32,96,,5,WSW,2.3,,,Snow,Light Snow,240,2013-12-25 18:00:00
7:00 PM,32.0,32.0,100,29.44,5.0,West,13.8,-,N/A,Snow,Light Snow,260,2013-12-25 18:00:00
8:00 PM,33.8,33.8,100,29.50,6.2,West,19.6,-,N/A,,Partly Cloudy,270,2013-12-25 19:00:00
9:00 PM,33.8,33.8,100,29.53,6.2,West,19.6,-,N/A,,Scattered Clouds,270,2013-12-25 20:00:00